Weather Roundup
Issued by NWS Chicago, IL

Home | Current Version | Previous Version | Text Only | Print | Product List | Glossary Off
Versions: 1 2 3 4 5 6 7 8 9 10 11 12 13 14 15 16 17 18 19 20 21 22 23 24 25 26 27 28 29 30 31 32 33 34 35 36 37 38 39 40 41 42 43 44 45 46 47 48 49 50

000
NZUS59 KLOT 262208
HRRLOT

CHICAGO AREA WEATHER ROUNDUP
NATIONAL WEATHER SERVICE CHICAGO/ROMEOVILLE IL
500 PM CDT TUE JUL 26 2016

NOTE: "FAIR" INDICATES FEW OR NO CLOUDS BELOW 12,000 FEET WITH NO
SIGNIFICANT WEATHER AND/OR OBSTRUCTIONS TO VISIBILITY.

* THESE STATIONS ARE NOT UNDER NWS QUALITY CONTROL. THEY ALSO MAY NOT
  REPORT WEATHER SUCH AS PRECIPITATION OR FOG.

ILZ005-006-012>014-019>023-262300-
NORTHEAST ILLINOIS

CITY           SKY/WX    TMP DP  RH WIND       PRES   REMARKS
OHARE          MOSUNNY   87  63  44 N5        30.00F HX  88
MIDWAY         MOSUNNY   86  63  45 E12       30.00S HX  87
AURORA         SUNNY     85  67  54 W6        30.01F HX  87
LANSING*       PTSUNNY   84  64  49 E5        30.00F HX  85
JOLIET*        MOSUNNY   87  69  55 CALM      30.00S HX  91
WAUKEGAN       SUNNY     82  65  56 E7        30.01F HX  84
DUPAGE AIRPORT MOSUNNY   86  64  47 VRB3      30.00F HX  87
WHEELING       SUNNY     84  61  45 VRB6      30.01F HX  84
KANKAKEE*      SUNNY     85  68  55 S5        30.01F HX  88
MORRIS*        SUNNY     84  68  57 CALM      29.99S HX  87
LEWIS AIRPORT* PTSUNNY   84  65  52 W5        30.00F HX  85
NORTHERLY ISL    N/A     79  69  71 NE6         N/A  HX  81
$$

WIZ051-052-058>065-066-070>072-262300-
SOUTHEAST WISCONSIN

CITY           SKY/WX    TMP DP  RH WIND       PRES   REMARKS
MILWAUKEE      MOSUNNY   84  61  45 SE9       30.01S HX  84
KENOSHA*       SUNNY     84  62  47 SE8       30.01F HX  85
RACINE*        SUNNY     84  60  44 SE8       30.03S HX  84
BURLINGTON     MOSUNNY   86  60  41 W5        30.01F HX  86
WAUKESHA       MOSUNNY   82  61  47 W8        30.03S HX  83
$$

INZ001>003-010>013-019-020-262300-
NORTHWEST INDIANA

CITY           SKY/WX    TMP DP  RH WIND       PRES   REMARKS
GARY*          MOSUNNY   84  66  54 N7        30.01F HX  86
MICHIGAN CITY* NOT AVBL
RENSSELAER*    NOT AVBL
VALPARAISO     PTSUNNY   83  65  54 NE5       30.01F HX  85
$$

LMZ740>746-262300-
SOUTHERN LAKE MICHIGAN

STATION/POSITION TIME  SKY/WX   TEMP WIND        PRES    VSBY
                                AIR  DIR/SP/G
                 (UTC)          (F)  (DEG/KT/KT) (MB)    (MI)
HARRISON CRIB    2100            79   80/  8/  8   N/A
BURNHAM HARBOR   2200            80   60/  4/  6   N/A
CALUMET HARBOR   2100            79   40/  8/  9 1015.9F
BURNS HARBOR     2100            78   30/ 10/ 10 1016.9F
MICHIGAN CITY    2100            78  350/ 10/ 10   N/A
$$

ABBREVIATIONS USED IN REMARKS
   TC - TEMPERATURE IN CELSIUS
  WCI - WIND CHILL INDEX
   HX - HEAT INDEX
  VSB - VISIBILITY
$$




USA.gov is the U.S. government's official web portal to all federal, state and local government web resources and services.